Time,TemperatureF,DewpointF,PressureIn,WindDirection,WindDirectionDegrees,WindSpeedMPH,WindSpeedGustMPH,Humidity,HourlyPrecipIn,Conditions,Clouds,dailyrainin,SoftwareType,DateUTC
2013-12-18 00:14:00,34.2,28.7,30.00,NW,315,2.2,-999.0,80,-99.99,,,0.00,Acu-Link.com,2013-12-18 05:14:00,
2013-12-18 00:29:00,33.4,30.5,30.00,West,270,0.0,-999.0,89,-99.99,,,0.00,Acu-Link.com,2013-12-18 05:29:00,
2013-12-18 00:45:00,33.4,32.9,30.01,NE,45,1.1,-999.0,98,-99.99,,,0.00,Acu-Link.com,2013-12-18 05:45:00,
2013-12-18 01:00:00,33.3,32.8,30.00,WSW,247,2.7,-999.0,98,-99.99,,,0.00,Acu-Link.com,2013-12-18 06:00:00,
2013-12-18 01:15:00,32.7,32.2,30.01,WNW,292,1.1,-999.0,98,-99.99,,,0.00,Acu-Link.com,2013-12-18 06:15:00,
2013-12-18 01:30:00,32.4,31.9,30.01,North,0,0.0,-999.0,98,-99.99,,,0.00,Acu-Link.com,2013-12-18 06:30:00,
2013-12-18 01:46:00,31.5,31.0,30.01,NNE,22,0.0,-999.0,98,-99.99,,,0.00,Acu-Link.com,2013-12-18 06:46:00,
2013-12-18 02:01:00,30.2,29.7,30.00,SW,225,0.0,-999.0,98,-99.99,,,0.00,Acu-Link.com,2013-12-18 07:01:00,
2013-12-18 02:16:00,28.9,28.4,30.00,SE,135,1.7,-999.0,98,-99.99,,,0.00,Acu-Link.com,2013-12-18 07:16:00,
2013-12-18 02:31:00,28.4,27.9,30.03,SSE,157,0.0,-999.0,98,-99.99,,,0.00,Acu-Link.com,2013-12-18 07:31:00,
2013-12-18 02:47:00,27.9,27.4,30.02,ESE,112,1.7,-999.0,98,-99.99,,,0.00,Acu-Link.com,2013-12-18 07:47:00,
2013-12-18 03:02:00,27.9,27.4,30.02,ESE,112,0.0,-999.0,98,-99.99,,,0.00,Acu-Link.com,2013-12-18 08:02:00,
2013-12-18 03:17:00,27.3,26.8,30.03,SE,135,0.0,-999.0,98,-99.99,,,0.00,Acu-Link.com,2013-12-18 08:17:00,
2013-12-18 03:33:00,27.7,27.2,30.03,SSE,157,1.7,-999.0,98,-99.99,,,0.00,Acu-Link.com,2013-12-18 08:33:00,
2013-12-18 03:48:00,26.8,26.3,30.05,WNW,292,1.1,-999.0,98,-99.99,,,0.00,Acu-Link.com,2013-12-18 08:48:00,
2013-12-18 04:03:00,26.6,26.1,30.04,SSW,202,2.2,-999.0,98,-99.99,,,0.00,Acu-Link.com,2013-12-18 09:03:00,
2013-12-18 04:19:00,26.1,25.6,30.04,WNW,292,0.0,-999.0,98,-99.99,,,0.00,Acu-Link.com,2013-12-18 09:19:00,
2013-12-18 04:34:00,25.3,24.8,30.04,North,0,0.0,-999.0,98,-99.99,,,0.00,Acu-Link.com,2013-12-18 09:34:00,
2013-12-18 04:49:00,25.0,24.5,30.06,SSW,202,0.0,-999.0,98,-99.99,,,0.00,Acu-Link.com,2013-12-18 09:49:00,
2013-12-18 05:04:00,24.3,23.8,30.05,SSW,202,0.0,-999.0,98,-99.99,,,0.00,Acu-Link.com,2013-12-18 10:04:00,
2013-12-18 05:20:00,23.7,23.2,30.06,SSW,202,0.0,-999.0,98,-99.99,,,0.00,Acu-Link.com,2013-12-18 10:20:00,
2013-12-18 05:35:00,24.3,23.8,30.07,SSW,202,0.0,-999.0,98,-99.99,,,0.00,Acu-Link.com,2013-12-18 10:35:00,
2013-12-18 05:51:00,23.9,23.4,30.07,SSW,202,0.0,-999.0,98,-99.99,,,0.00,Acu-Link.com,2013-12-18 10:51:00,
2013-12-18 06:06:00,23.5,23.0,30.06,East,90,0.0,-999.0,98,-99.99,,,0.00,Acu-Link.com,2013-12-18 11:06:00,
2013-12-18 06:21:00,23.5,23.0,30.06,SSE,157,0.0,-999.0,98,-99.99,,,0.00,Acu-Link.com,2013-12-18 11:21:00,
2013-12-18 06:37:00,22.8,22.3,30.06,South,180,0.0,-999.0,98,-99.99,,,0.00,Acu-Link.com,2013-12-18 11:37:00,
2013-12-18 06:52:00,22.8,22.3,30.07,North,0,0.0,-999.0,98,-99.99,,,0.00,Acu-Link.com,2013-12-18 11:52:00,
2013-12-18 07:07:00,22.6,22.1,30.07,North,0,0.0,-999.0,98,-99.99,,,0.00,Acu-Link.com,2013-12-18 12:07:00,
2013-12-18 07:22:00,22.5,22.0,30.08,North,0,2.2,-999.0,98,-99.99,,,0.00,Acu-Link.com,2013-12-18 12:22:00,
2013-12-18 07:37:00,22.8,22.3,30.08,SSE,157,0.0,-999.0,98,-99.99,,,0.00,Acu-Link.com,2013-12-18 12:37:00,
2013-12-18 07:52:00,22.5,22.0,30.09,South,180,0.0,-999.0,98,-99.99,,,0.00,Acu-Link.com,2013-12-18 12:52:00,
2013-12-18 08:08:00,22.6,22.1,30.09,North,0,0.0,-999.0,98,-99.99,,,0.00,Acu-Link.com,2013-12-18 13:08:00,
2013-12-18 08:23:00,23.4,22.9,30.11,West,270,1.1,-999.0,98,-99.99,,,0.00,Acu-Link.com,2013-12-18 13:23:00,
2013-12-18 08:38:00,24.6,24.1,30.10,NW,315,0.0,-999.0,98,-99.99,,,0.00,Acu-Link.com,2013-12-18 13:38:00,
2013-12-18 08:53:00,26.4,25.9,30.10,WNW,292,2.2,-999.0,98,-99.99,,,0.00,Acu-Link.com,2013-12-18 13:53:00,
2013-12-18 09:09:00,28.9,28.4,30.11,SSW,202,0.0,-999.0,98,-99.99,,,0.00,Acu-Link.com,2013-12-18 14:09:00,
2013-12-18 09:24:00,31.8,31.3,30.11,SW,225,0.0,-999.0,98,-99.99,,,0.00,Acu-Link.com,2013-12-18 14:24:00,
2013-12-18 09:39:00,34.9,34.4,30.11,SSW,202,2.2,-999.0,98,-99.99,,,0.00,Acu-Link.com,2013-12-18 14:39:00,
2013-12-18 09:55:00,37.8,33.7,30.11,SSE,157,4.2,-999.0,85,-99.99,,,0.00,Acu-Link.com,2013-12-18 14:55:00,
2013-12-18 10:10:00,40.1,32.2,30.11,South,180,4.7,-999.0,73,-99.99,,,0.00,Acu-Link.com,2013-12-18 15:10:00,
2013-12-18 10:25:00,41.4,28.2,30.10,SW,225,1.7,-999.0,59,-99.99,,,0.00,Acu-Link.com,2013-12-18 15:25:00,
2013-12-18 10:40:00,43.0,28.4,30.10,SW,225,2.2,-999.0,56,-99.99,,,0.00,Acu-Link.com,2013-12-18 15:40:00,
2013-12-18 10:55:00,45.9,28.3,30.12,ESE,112,2.7,-999.0,50,-99.99,,,0.00,Acu-Link.com,2013-12-18 15:55:00,
2013-12-18 11:10:00,46.2,27.1,30.10,South,180,4.2,-999.0,47,-99.99,,,0.00,Acu-Link.com,2013-12-18 16:10:00,
2013-12-18 11:26:00,49.5,26.8,30.12,SW,225,2.2,-999.0,41,-99.99,,,0.00,Acu-Link.com,2013-12-18 16:26:00,
2013-12-18 11:41:00,50.2,24.9,30.10,WSW,247,4.7,-999.0,37,-99.99,,,0.00,Acu-Link.com,2013-12-18 16:41:00,
2013-12-18 11:56:00,49.5,21.6,30.10,WSW,247,1.1,-999.0,33,-99.99,,,0.00,Acu-Link.com,2013-12-18 16:56:00,
2013-12-18 12:11:00,50.0,23.4,30.09,West,270,2.7,-999.0,35,-99.99,,,0.00,Acu-Link.com,2013-12-18 17:11:00,
2013-12-18 12:27:00,51.1,23.0,30.10,SW,225,4.7,-999.0,33,-99.99,,,0.00,Acu-Link.com,2013-12-18 17:27:00,
2013-12-18 12:42:00,49.8,21.9,30.09,ESE,112,2.2,-999.0,33,-99.99,,,0.00,Acu-Link.com,2013-12-18 17:42:00,
2013-12-18 12:57:00,49.8,21.9,30.08,ESE,112,3.7,-999.0,33,-99.99,,,0.00,Acu-Link.com,2013-12-18 17:57:00,
2013-12-18 13:12:00,51.6,19.6,30.08,West,270,2.2,-999.0,28,-99.99,,,0.00,Acu-Link.com,2013-12-18 18:12:00,
2013-12-18 13:27:00,51.6,24.2,30.08,West,270,2.7,-999.0,34,-99.99,,,0.00,Acu-Link.com,2013-12-18 18:27:00,
2013-12-18 13:43:00,52.0,22.3,30.07,SSW,202,1.7,-999.0,31,-99.99,,,0.00,Acu-Link.com,2013-12-18 18:43:00,
2013-12-18 13:58:00,51.1,20.8,30.07,NW,315,4.2,-999.0,30,-99.99,,,0.00,Acu-Link.com,2013-12-18 18:58:00,
2013-12-18 14:13:00,50.4,23.8,30.07,WSW,247,2.2,-999.0,35,-99.99,,,0.00,Acu-Link.com,2013-12-18 19:13:00,
2013-12-18 14:28:00,53.4,23.5,30.05,WNW,292,2.7,-999.0,31,-99.99,,,0.00,Acu-Link.com,2013-12-18 19:28:00,
2013-12-18 14:44:00,52.5,22.0,30.06,NNW,337,4.2,-999.0,30,-99.99,,,0.00,Acu-Link.com,2013-12-18 19:44:00,
2013-12-18 14:59:00,50.7,21.9,30.06,WSW,247,3.7,-999.0,32,-99.99,,,0.00,Acu-Link.com,2013-12-18 19:59:00,
2013-12-18 15:14:00,51.1,20.8,30.06,SSE,157,2.7,-999.0,30,-99.99,,,0.00,Acu-Link.com,2013-12-18 20:14:00,
2013-12-18 15:29:00,52.9,20.7,30.05,SW,225,3.2,-999.0,28,-99.99,,,0.00,Acu-Link.com,2013-12-18 20:29:00,
2013-12-18 15:45:00,49.6,21.7,30.05,SW,225,1.7,-999.0,33,-99.99,,,0.00,Acu-Link.com,2013-12-18 20:45:00,
2013-12-18 16:00:00,47.8,20.8,30.06,SW,225,3.2,-999.0,34,-99.99,,,0.00,Acu-Link.com,2013-12-18 21:00:00,
2013-12-18 16:15:00,47.3,22.4,30.06,WSW,247,2.2,-999.0,37,-99.99,,,0.00,Acu-Link.com,2013-12-18 21:15:00,
2013-12-18 16:31:00,46.9,21.4,30.05,WSW,247,2.2,-999.0,36,-99.99,,,0.00,Acu-Link.com,2013-12-18 21:31:00,
2013-12-18 16:46:00,45.9,22.4,30.06,SW,225,0.0,-999.0,39,-99.99,,,0.00,Acu-Link.com,2013-12-18 21:46:00,
2013-12-18 17:01:00,44.8,22.6,30.06,WSW,247,1.1,-999.0,41,-99.99,,,0.00,Acu-Link.com,2013-12-18 22:01:00,
2013-12-18 17:16:00,43.0,23.1,30.05,WSW,247,0.0,-999.0,45,-99.99,,,0.00,Acu-Link.com,2013-12-18 22:16:00,
2013-12-18 17:32:00,41.0,25.6,30.04,SSE,157,0.0,-999.0,54,-99.99,,,0.00,Acu-Link.com,2013-12-18 22:32:00,
2013-12-18 17:47:00,39.7,25.3,30.03,NW,315,0.0,-999.0,56,-99.99,,,0.00,Acu-Link.com,2013-12-18 22:47:00,
2013-12-18 18:02:00,37.8,26.0,30.02,South,180,0.0,-999.0,62,-99.99,,,0.00,Acu-Link.com,2013-12-18 23:02:00,
2013-12-18 18:18:00,36.5,26.6,30.02,ESE,112,0.0,-999.0,67,-99.99,,,0.00,Acu-Link.com,2013-12-18 23:18:00,
2013-12-18 18:33:00,35.4,27.6,30.02,NE,45,0.0,-999.0,73,-99.99,,,0.00,Acu-Link.com,2013-12-18 23:33:00,
2013-12-18 18:48:00,34.5,27.4,30.02,North,0,0.0,-999.0,75,-99.99,,,0.00,Acu-Link.com,2013-12-18 23:48:00,
2013-12-18 19:03:00,33.4,28.8,30.03,SSE,157,1.7,-999.0,83,-99.99,,,0.00,Acu-Link.com,2013-12-19 00:03:00,
2013-12-18 19:18:00,32.9,27.7,30.03,East,90,0.0,-999.0,81,-99.99,,,0.00,Acu-Link.com,2013-12-19 00:18:00,
2013-12-18 19:34:00,32.0,28.0,30.03,NW,315,0.0,-999.0,85,-99.99,,,0.00,Acu-Link.com,2013-12-19 00:34:00,
2013-12-18 19:49:00,31.3,28.4,30.04,WNW,292,0.0,-999.0,89,-99.99,,,0.00,Acu-Link.com,2013-12-19 00:49:00,
2013-12-18 20:04:00,30.7,30.2,30.05,East,90,0.0,-999.0,98,-99.99,,,0.00,Acu-Link.com,2013-12-19 01:04:00,
2013-12-18 20:20:00,30.6,30.1,30.05,SE,135,0.0,-999.0,98,-99.99,,,0.00,Acu-Link.com,2013-12-19 01:20:00,
2013-12-18 20:35:00,30.2,27.4,30.04,NNW,337,1.7,-999.0,89,-99.99,,,0.00,Acu-Link.com,2013-12-19 01:35:00,
2013-12-18 20:50:00,29.7,29.2,30.05,SSE,157,1.1,-999.0,98,-99.99,,,0.00,Acu-Link.com,2013-12-19 01:50:00,
2013-12-18 21:06:00,29.1,28.6,30.04,NNW,337,0.0,-999.0,98,-99.99,,,0.00,Acu-Link.com,2013-12-19 02:06:00,
2013-12-18 21:21:00,28.9,28.4,30.03,NE,45,0.0,-999.0,98,-99.99,,,0.00,Acu-Link.com,2013-12-19 02:21:00,
2013-12-18 21:36:00,28.4,27.9,30.04,NE,45,1.1,-999.0,98,-99.99,,,0.00,Acu-Link.com,2013-12-19 02:36:00,
2013-12-18 21:51:00,28.0,27.5,30.04,NE,45,0.0,-999.0,98,-99.99,,,0.00,Acu-Link.com,2013-12-19 02:51:00,
2013-12-18 22:07:00,27.5,27.0,30.04,NE,45,0.0,-999.0,98,-99.99,,,0.00,Acu-Link.com,2013-12-19 03:07:00,
2013-12-18 22:22:00,27.7,27.2,30.05,NE,45,0.0,-999.0,98,-99.99,,,0.00,Acu-Link.com,2013-12-19 03:22:00,
2013-12-18 22:37:00,27.7,27.2,30.05,NE,45,0.0,-999.0,98,-99.99,,,0.00,Acu-Link.com,2013-12-19 03:37:00,
2013-12-18 22:53:00,27.3,26.8,30.03,NE,45,0.0,-999.0,98,-99.99,,,0.00,Acu-Link.com,2013-12-19 03:53:00,
2013-12-18 23:08:00,26.6,26.1,30.04,NE,45,0.0,-999.0,98,-99.99,,,0.00,Acu-Link.com,2013-12-19 04:08:00,
2013-12-18 23:23:00,26.6,26.1,30.04,SE,135,0.0,-999.0,98,-99.99,,,0.00,Acu-Link.com,2013-12-19 04:23:00,
2013-12-18 23:38:00,26.6,26.1,30.04,ESE,112,0.0,-999.0,98,-99.99,,,0.00,Acu-Link.com,2013-12-19 04:38:00,
2013-12-18 23:54:00,26.2,25.7,30.04,ENE,67,1.1,-999.0,98,-99.99,,,0.00,Acu-Link.com,2013-12-19 04:54:00,